Time,TemperatureF,DewpointF,PressureIn,WindDirection,WindDirectionDegrees,WindSpeedMPH,WindSpeedGustMPH,Humidity,HourlyPrecipIn,Conditions,Clouds,dailyrainin,SoftwareType,DateUTC
2013-08-03 00:02:00,73.0,70.0,29.98,East,79,2.0,8.0,90,0.00,,,0.55,,2013-08-03 05:02:00,
2013-08-03 00:12:00,73.0,70.0,29.98,East,88,1.0,5.0,90,0.00,,,0.55,,2013-08-03 05:12:00,
2013-08-03 00:22:00,73.0,70.0,29.98,ENE,65,0.0,3.0,90,0.00,,,0.53,,2013-08-03 05:22:00,
2013-08-03 00:32:00,73.0,70.0,29.99,ENE,62,1.0,4.0,91,0.00,,,0.53,,2013-08-03 05:32:00,
2013-08-03 00:42:00,73.0,70.0,29.99,East,93,1.0,5.0,91,0.00,,,0.53,,2013-08-03 05:42:00,
2013-08-03 00:52:00,73.0,70.0,30.00,East,92,1.0,3.0,91,0.00,,,0.53,,2013-08-03 05:52:00,
2013-08-03 01:02:00,73.0,70.0,29.99,ENE,75,1.0,4.0,91,0.00,,,0.53,,2013-08-03 06:02:00,
2013-08-03 01:12:00,73.0,70.0,29.99,NE,44,2.0,5.0,91,0.00,,,0.53,,2013-08-03 06:12:00,
2013-08-03 01:22:00,73.0,70.0,29.99,ENE,57,3.0,7.0,91,0.00,,,0.48,,2013-08-03 06:22:00,
2013-08-03 01:32:00,73.0,70.0,30.00,East,84,2.0,5.0,91,0.00,,,0.48,,2013-08-03 06:32:00,
2013-08-03 01:42:00,73.0,70.0,30.00,NE,55,2.0,5.0,91,0.00,,,0.48,,2013-08-03 06:42:00,
2013-08-03 01:52:00,73.0,70.0,30.00,East,86,3.0,4.0,91,0.00,,,0.48,,2013-08-03 06:52:00,
2013-08-03 02:02:00,73.0,70.0,30.00,East,96,3.0,8.0,91,0.00,,,0.48,,2013-08-03 07:02:00,
2013-08-03 02:12:00,73.0,70.0,30.00,ENE,78,4.0,7.0,91,0.00,,,0.48,,2013-08-03 07:12:00,
2013-08-03 02:22:00,73.0,70.0,30.00,SE,144,1.0,7.0,91,0.00,,,0.39,,2013-08-03 07:22:00,
2013-08-03 02:32:00,73.0,70.0,30.01,East,84,2.0,5.0,91,0.00,,,0.39,,2013-08-03 07:32:00,
2013-08-03 02:43:00,73.0,70.0,29.99,ENE,70,4.0,7.0,91,0.00,,,0.39,,2013-08-03 07:43:00,
2013-08-03 02:52:00,73.0,71.0,29.99,ENE,58,3.0,7.0,92,0.00,,,0.39,,2013-08-03 07:52:00,
2013-08-03 03:02:00,73.0,71.0,29.99,North,10,4.0,7.0,92,0.00,,,0.39,,2013-08-03 08:02:00,
2013-08-03 03:11:00,72.0,70.0,29.99,NNE,28,5.0,11.0,92,0.00,,,0.39,,2013-08-03 08:11:00,
2013-08-03 03:22:00,72.0,70.0,29.99,NE,55,6.0,12.0,93,0.00,,,0.10,,2013-08-03 08:22:00,
2013-08-03 03:32:00,71.0,69.0,29.99,NE,45,7.0,11.0,93,0.00,,,0.10,,2013-08-03 08:32:00,
2013-08-03 03:43:00,71.0,69.0,29.99,ENE,65,7.0,13.0,93,0.00,,,0.10,,2013-08-03 08:43:00,
2013-08-03 03:52:00,70.0,68.0,30.00,NE,52,3.0,8.0,93,0.00,,,0.10,,2013-08-03 08:52:00,
2013-08-03 04:02:00,70.0,68.0,30.01,ESE,103,7.0,11.0,94,0.00,,,0.10,,2013-08-03 09:02:00,
2013-08-03 04:12:00,70.0,68.0,30.01,East,83,4.0,9.0,94,0.00,,,0.10,,2013-08-03 09:12:00,
2013-08-03 04:22:00,70.0,68.0,30.01,ENE,59,3.0,5.0,94,0.00,,,0.01,,2013-08-03 09:22:00,
2013-08-03 04:32:00,69.0,67.0,30.01,ENE,73,3.0,6.0,94,0.00,,,0.01,,2013-08-03 09:32:00,
2013-08-03 04:43:00,69.0,67.0,30.02,NE,53,4.0,9.0,93,0.00,,,0.01,,2013-08-03 09:43:00,
2013-08-03 04:53:00,68.0,66.0,30.02,East,82,3.0,7.0,93,0.00,,,0.01,,2013-08-03 09:53:00,
2013-08-03 05:02:00,68.0,66.0,30.02,East,94,4.0,8.0,93,0.00,,,0.01,,2013-08-03 10:02:00,
2013-08-03 05:12:00,68.0,66.0,30.01,ENE,75,6.0,9.0,92,0.00,,,0.01,,2013-08-03 10:12:00,
2013-08-03 05:22:00,67.0,65.0,30.01,NE,51,6.0,10.0,92,0.00,,,0.00,,2013-08-03 10:22:00,
2013-08-03 05:32:00,67.0,65.0,30.02,East,89,3.0,8.0,92,0.00,,,0.00,,2013-08-03 10:32:00,
2013-08-03 05:42:00,66.0,64.0,30.02,NNE,30,3.0,8.0,92,0.00,,,0.00,,2013-08-03 10:42:00,
2013-08-03 05:53:00,66.0,64.0,30.02,ENE,65,4.0,6.0,93,0.00,,,0.00,,2013-08-03 10:53:00,
2013-08-03 06:02:00,66.0,64.0,30.03,NE,50,5.0,8.0,93,0.00,,,0.00,,2013-08-03 11:02:00,
2013-08-03 06:12:00,66.0,64.0,30.03,ESE,108,3.0,8.0,92,0.00,,,0.00,,2013-08-03 11:12:00,
2013-08-03 06:22:00,66.0,64.0,30.03,ENE,65,5.0,7.0,92,0.00,,,0.00,,2013-08-03 11:22:00,
2013-08-03 06:32:00,66.0,64.0,30.03,NE,53,5.0,9.0,92,0.00,,,0.00,,2013-08-03 11:32:00,
2013-08-03 06:43:00,66.0,63.0,30.04,ENE,58,4.0,8.0,91,0.00,,,0.00,,2013-08-03 11:43:00,
2013-08-03 06:53:00,66.0,63.0,30.04,East,94,4.0,7.0,91,0.00,,,0.00,,2013-08-03 11:53:00,
2013-08-03 07:02:00,66.0,63.0,30.04,ENE,58,4.0,7.0,90,0.00,,,0.00,,2013-08-03 12:02:00,
2013-08-03 07:12:00,66.0,63.0,30.05,ESE,102,6.0,10.0,90,0.00,,,0.00,,2013-08-03 12:12:00,
2013-08-03 07:22:00,66.0,63.0,30.05,East,80,5.0,10.0,89,0.00,,,0.00,,2013-08-03 12:22:00,
2013-08-03 07:43:00,66.0,62.0,30.06,East,94,6.0,10.0,88,0.00,,,0.00,,2013-08-03 12:43:00,
2013-08-03 07:52:00,66.0,62.0,30.06,East,93,6.0,10.0,87,0.00,,,0.00,,2013-08-03 12:52:00,
2013-08-03 08:02:00,66.0,62.0,30.06,ENE,74,8.0,12.0,86,0.00,,,0.00,,2013-08-03 13:02:00,
2013-08-03 08:12:00,66.0,62.0,30.07,East,82,7.0,14.0,86,0.00,,,0.00,,2013-08-03 13:12:00,
2013-08-03 08:22:00,66.0,61.0,30.07,ENE,78,7.0,13.0,85,0.00,,,0.00,,2013-08-03 13:22:00,
2013-08-03 08:33:00,67.0,62.0,30.08,ESE,107,6.0,12.0,85,0.00,,,0.00,,2013-08-03 13:33:00,
2013-08-03 08:43:00,67.0,62.0,30.08,East,96,8.0,13.0,84,0.00,,,0.00,,2013-08-03 13:43:00,
2013-08-03 08:52:00,67.0,62.0,30.08,East,88,6.0,11.0,84,0.00,,,0.00,,2013-08-03 13:52:00,
2013-08-03 09:02:00,67.0,62.0,30.08,East,85,8.0,13.0,84,0.00,,,0.00,,2013-08-03 14:02:00,
2013-08-03 09:12:00,67.0,62.0,30.09,East,86,6.0,10.0,85,0.00,,,0.00,,2013-08-03 14:12:00,
2013-08-03 09:22:00,67.0,62.0,30.09,ESE,103,5.0,11.0,85,0.00,,,0.00,,2013-08-03 14:22:00,
2013-08-03 09:32:00,67.0,62.0,30.09,East,86,6.0,10.0,85,0.00,,,0.00,,2013-08-03 14:32:00,
2013-08-03 09:42:00,68.0,63.0,30.10,NE,49,6.0,11.0,85,0.00,,,0.00,,2013-08-03 14:42:00,
2013-08-03 09:52:00,70.0,64.0,30.10,East,79,7.0,13.0,81,0.00,,,0.00,,2013-08-03 14:52:00,
2013-08-03 10:02:00,69.0,64.0,30.10,ENE,61,6.0,11.0,83,0.00,,,0.00,,2013-08-03 15:02:00,
2013-08-03 10:12:00,70.0,64.0,30.10,ENE,62,7.0,11.0,82,0.00,,,0.00,,2013-08-03 15:12:00,
2013-08-03 10:22:00,71.0,65.0,30.10,ENE,78,5.0,13.0,82,0.00,,,0.00,,2013-08-03 15:22:00,
2013-08-03 10:32:00,72.0,65.0,30.11,East,97,7.0,15.0,79,0.00,,,0.00,,2013-08-03 15:32:00,
2013-08-03 10:43:00,72.0,66.0,30.11,East,84,7.0,12.0,81,0.00,,,0.00,,2013-08-03 15:43:00,
2013-08-03 10:53:00,72.0,66.0,30.11,ENE,72,6.0,12.0,81,0.00,,,0.00,,2013-08-03 15:53:00,
2013-08-03 11:02:00,74.0,68.0,30.11,ENE,77,8.0,13.0,81,0.00,,,0.00,,2013-08-03 16:02:00,
2013-08-03 11:12:00,75.0,68.0,30.11,East,80,6.0,13.0,79,0.00,,,0.00,,2013-08-03 16:12:00,
2013-08-03 11:23:00,74.0,67.0,30.11,NE,45,8.0,15.0,80,0.00,,,0.00,,2013-08-03 16:23:00,
2013-08-03 11:33:00,74.0,67.0,30.11,ENE,68,8.0,13.0,80,0.00,,,0.00,,2013-08-03 16:33:00,
2013-08-03 11:43:00,74.0,68.0,30.11,East,94,9.0,15.0,81,0.00,,,0.00,,2013-08-03 16:43:00,
2013-08-03 11:53:00,76.0,68.0,30.11,ENE,71,8.0,13.0,77,0.00,,,0.00,,2013-08-03 16:53:00,
2013-08-03 12:03:00,76.0,69.0,30.11,ENE,61,7.0,13.0,78,0.00,,,0.00,,2013-08-03 17:03:00,
2013-08-03 12:12:00,76.0,69.0,30.11,East,93,7.0,14.0,78,0.00,,,0.00,,2013-08-03 17:12:00,
2013-08-03 12:22:00,76.0,69.0,30.11,East,93,8.0,13.0,79,0.00,,,0.00,,2013-08-03 17:22:00,
2013-08-03 12:32:00,77.0,70.0,30.12,ENE,69,7.0,15.0,79,0.00,,,0.00,,2013-08-03 17:32:00,
2013-08-03 12:43:00,79.0,70.0,30.12,NE,46,7.0,11.0,75,0.00,,,0.00,,2013-08-03 17:43:00,
2013-08-03 12:52:00,78.0,69.0,30.13,ENE,66,9.0,15.0,75,0.00,,,0.00,,2013-08-03 17:52:00,
2013-08-03 13:02:00,77.0,69.0,30.13,NE,51,10.0,15.0,76,0.00,,,0.00,,2013-08-03 18:02:00,
2013-08-03 13:12:00,77.0,69.0,30.13,East,96,10.0,15.0,76,0.00,,,0.00,,2013-08-03 18:12:00,
2013-08-03 13:22:00,78.0,69.0,30.13,ENE,76,7.0,14.0,75,0.00,,,0.00,,2013-08-03 18:22:00,
2013-08-03 13:32:00,78.0,69.0,30.13,ENE,77,7.0,13.0,75,0.00,,,0.00,,2013-08-03 18:32:00,
2013-08-03 13:43:00,77.0,69.0,30.12,ESE,107,8.0,12.0,77,0.00,,,0.00,,2013-08-03 18:43:00,
2013-08-03 13:53:00,78.0,70.0,30.12,ENE,78,8.0,14.0,76,0.00,,,0.00,,2013-08-03 18:53:00,
2013-08-03 14:02:00,79.0,71.0,30.12,East,84,8.0,12.0,76,0.00,,,0.00,,2013-08-03 19:02:00,
2013-08-03 14:12:00,80.0,71.0,30.12,East,90,8.0,15.0,74,0.00,,,0.00,,2013-08-03 19:12:00,
2013-08-03 14:22:00,80.0,70.0,30.12,ENE,63,9.0,13.0,71,0.00,,,0.00,,2013-08-03 19:22:00,
2013-08-03 14:32:00,79.0,70.0,30.13,East,79,8.0,10.0,74,0.00,,,0.00,,2013-08-03 19:32:00,
2013-08-03 14:43:00,79.0,70.0,30.13,NE,36,7.0,12.0,75,0.00,,,0.00,,2013-08-03 19:43:00,
2013-08-03 14:52:00,79.0,70.0,30.13,ENE,71,7.0,13.0,75,0.00,,,0.00,,2013-08-03 19:52:00,
2013-08-03 15:02:00,79.0,70.0,30.13,ENE,59,7.0,12.0,75,0.00,,,0.00,,2013-08-03 20:02:00,
2013-08-03 15:12:00,79.0,70.0,30.13,East,86,8.0,14.0,74,0.00,,,0.00,,2013-08-03 20:12:00,
2013-08-03 15:22:00,79.0,70.0,30.14,ENE,61,7.0,13.0,75,0.00,,,0.00,,2013-08-03 20:22:00,
2013-08-03 15:32:00,79.0,70.0,30.13,ESE,107,6.0,11.0,75,0.00,,,0.00,,2013-08-03 20:32:00,
2013-08-03 15:42:00,79.0,71.0,30.13,ESE,106,6.0,12.0,76,0.00,,,0.00,,2013-08-03 20:42:00,
2013-08-03 15:52:00,79.0,71.0,30.13,NE,44,6.0,14.0,76,0.00,,,0.00,,2013-08-03 20:52:00,
2013-08-03 16:02:00,79.0,70.0,30.13,ENE,74,7.0,15.0,75,0.00,,,0.00,,2013-08-03 21:02:00,
2013-08-03 16:12:00,79.0,70.0,30.12,NE,46,7.0,11.0,75,0.00,,,0.00,,2013-08-03 21:12:00,
2013-08-03 16:22:00,79.0,70.0,30.12,ENE,59,9.0,13.0,75,0.00,,,0.00,,2013-08-03 21:22:00,
2013-08-03 16:32:00,79.0,70.0,30.12,ENE,66,7.0,12.0,75,0.00,,,0.00,,2013-08-03 21:32:00,
2013-08-03 16:42:00,79.0,71.0,30.12,ENE,61,6.0,13.0,76,0.00,,,0.00,,2013-08-03 21:42:00,
2013-08-03 16:52:00,79.0,70.0,30.12,ENE,62,9.0,15.0,74,0.00,,,0.00,,2013-08-03 21:52:00,
2013-08-03 17:02:00,78.0,69.0,30.11,ENE,72,8.0,13.0,75,0.00,,,0.00,,2013-08-03 22:02:00,
2013-08-03 17:12:00,78.0,69.0,30.11,East,84,7.0,13.0,75,0.00,,,0.00,,2013-08-03 22:12:00,
2013-08-03 17:22:00,78.0,70.0,30.10,ENE,58,6.0,11.0,76,0.00,,,0.00,,2013-08-03 22:22:00,
2013-08-03 17:33:00,78.0,69.0,30.11,ENE,65,5.0,12.0,75,0.00,,,0.00,,2013-08-03 22:33:00,
2013-08-03 17:43:00,78.0,69.0,30.11,ENE,60,5.0,11.0,74,0.00,,,0.00,,2013-08-03 22:43:00,
2013-08-03 17:52:00,78.0,69.0,30.11,NE,53,6.0,11.0,74,0.00,,,0.00,,2013-08-03 22:52:00,
2013-08-03 18:02:00,78.0,69.0,30.11,East,90,7.0,12.0,74,0.00,,,0.00,,2013-08-03 23:02:00,
2013-08-03 18:12:00,78.0,69.0,30.10,ENE,77,6.0,11.0,74,0.00,,,0.00,,2013-08-03 23:12:00,
2013-08-03 18:22:00,79.0,70.0,30.11,ESE,103,6.0,10.0,74,0.00,,,0.00,,2013-08-03 23:22:00,
2013-08-03 18:32:00,78.0,69.0,30.10,ESE,104,7.0,11.0,73,0.00,,,0.00,,2013-08-03 23:32:00,
2013-08-03 18:42:00,79.0,70.0,30.09,ESE,107,5.0,10.0,74,0.00,,,0.00,,2013-08-03 23:42:00,
2013-08-03 18:52:00,79.0,70.0,30.09,ESE,111,6.0,11.0,74,0.00,,,0.00,,2013-08-03 23:52:00,
2013-08-03 19:02:00,79.0,70.0,30.09,ESE,108,5.0,11.0,73,0.00,,,0.00,,2013-08-04 00:02:00,
2013-08-03 19:12:00,78.0,69.0,30.09,ESE,107,5.0,10.0,74,0.00,,,0.00,,2013-08-04 00:12:00,
2013-08-03 19:22:00,78.0,70.0,30.09,ESE,120,4.0,9.0,76,0.00,,,0.00,,2013-08-04 00:22:00,
2013-08-03 19:32:00,77.0,69.0,30.09,ENE,72,4.0,7.0,76,0.00,,,0.00,,2013-08-04 00:32:00,
2013-08-03 19:42:00,77.0,69.0,30.09,ESE,115,3.0,7.0,77,0.00,,,0.00,,2013-08-04 00:42:00,
2013-08-03 19:52:00,77.0,70.0,30.09,ESE,107,1.0,8.0,78,0.00,,,0.00,,2013-08-04 00:52:00,
2013-08-03 20:02:00,77.0,70.0,30.09,East,94,3.0,8.0,78,0.00,,,0.00,,2013-08-04 01:02:00,
2013-08-03 20:12:00,77.0,70.0,30.09,East,101,2.0,5.0,79,0.00,,,0.00,,2013-08-04 01:12:00,
2013-08-03 20:22:00,77.0,70.0,30.09,ESE,108,3.0,5.0,79,0.00,,,0.00,,2013-08-04 01:22:00,
2013-08-03 20:32:00,76.0,69.0,30.09,East,99,3.0,5.0,80,0.00,,,0.00,,2013-08-04 01:32:00,
2013-08-03 20:42:00,75.0,69.0,30.09,ESE,105,1.0,3.0,83,0.00,,,0.00,,2013-08-04 01:42:00,
2013-08-03 20:53:00,75.0,69.0,30.09,SE,130,1.0,3.0,83,0.00,,,0.00,,2013-08-04 01:53:00,
2013-08-03 21:02:00,75.0,69.0,30.09,ESE,111,1.0,4.0,83,0.00,,,0.00,,2013-08-04 02:02:00,
2013-08-03 21:12:00,75.0,69.0,30.09,East,97,1.0,4.0,83,0.00,,,0.00,,2013-08-04 02:12:00,
2013-08-03 21:22:00,75.0,69.0,30.09,East,97,1.0,4.0,83,0.00,,,0.00,,2013-08-04 02:22:00,
2013-08-03 21:32:00,75.0,70.0,30.10,ENE,58,2.0,5.0,84,0.00,,,0.00,,2013-08-04 02:32:00,
2013-08-03 21:42:00,74.0,69.0,30.12,NE,56,2.0,7.0,85,0.00,,,0.00,,2013-08-04 02:42:00,
2013-08-03 22:02:00,74.0,70.0,30.13,ENE,67,4.0,7.0,86,0.00,,,0.00,,2013-08-04 03:02:00,
2013-08-03 22:11:00,74.0,70.0,30.13,East,82,4.0,8.0,86,0.00,,,0.00,,2013-08-04 03:11:00,
2013-08-03 22:22:00,74.0,69.0,30.14,ENE,59,3.0,8.0,85,0.00,,,0.00,,2013-08-04 03:22:00,
2013-08-03 22:32:00,74.0,69.0,30.14,NE,38,3.0,6.0,85,0.00,,,0.00,,2013-08-04 03:32:00,
2013-08-03 22:42:00,74.0,69.0,30.15,ENE,60,3.0,7.0,85,0.00,,,0.00,,2013-08-04 03:42:00,
2013-08-03 22:52:00,74.0,69.0,30.15,ENE,60,3.0,7.0,85,0.00,,,0.00,,2013-08-04 03:52:00,
2013-08-03 23:02:00,73.0,68.0,30.16,ENE,62,5.0,10.0,83,0.00,,,0.00,,2013-08-04 04:02:00,
2013-08-03 23:12:00,73.0,68.0,30.16,NE,52,6.0,10.0,83,0.00,,,0.00,,2013-08-04 04:12:00,
2013-08-03 23:22:00,73.0,68.0,30.16,NE,52,6.0,10.0,83,0.00,,,0.00,,2013-08-04 04:22:00,
2013-08-03 23:32:00,73.0,67.0,30.16,NE,43,5.0,10.0,82,0.00,,,0.00,,2013-08-04 04:32:00,
2013-08-03 23:42:00,73.0,67.0,30.16,NE,43,5.0,10.0,82,0.00,,,0.00,,2013-08-04 04:42:00,
2013-08-03 23:52:00,73.0,67.0,30.16,NE,55,5.0,10.0,81,0.00,,,0.00,,2013-08-04 04:52:00,